Latest Weather Observations for Frankston

IDV60801

Issued at 1:02 am EST Sunday 5 July 2015 (issued every 30 minutes, with the page automatically refreshed every 10 minutes)

About weather observations | Map of weather stations | Latest weather observations for VIC | Other Formats
Station Details ID: 086371 Name: FRANKSTON AWS Lat: -38.15 Lon: 145.12 Height: 6.0 m
Data from the previous 72 hours. | See also: Recent months at Frankston
Date/Time
EST
Temp
°C
App
Temp
°C
Dew
Point
Rel
Hum
%
Delta-T
°C
Wind Press
QNH
hPa
Press
MSL
hPa
Rain
since 9 am
mm
Dir
 
Spd
km/h
Gust
km/h
Spd
kts
Gust
kts
05/01:00am 10.0 4.9 5.8 75 1.9 N 22 28 12 15 - - -
05/12:30am 10.1 4.2 5.7 74 2.0 N 26 33 14 18 - - -
05/12:00am 10.2 4.3 6.0 75 1.9 NNE 26 32 14 17 - - -
 
Date/Time
EST
Temp
°C
App
Temp
°C
Dew
Point
Rel
Hum
%
Delta-T
°C
Wind Press
QNH
hPa
Press
MSL
hPa
Rain
since 9 am
mm
Dir
 
Spd
km/h
Gust
km/h
Spd
kts
Gust
kts
04/11:30pm 10.2 5.1 6.0 75 1.9 N 22 26 12 14 - - -
04/11:00pm 10.2 5.5 6.2 76 1.9 N 20 28 11 15 - - -
04/10:30pm 10.2 5.5 6.2 76 1.9 NNE 20 26 11 14 - - -
04/10:00pm 9.6 6.2 5.8 77 1.7 NNE 13 19 7 10 - - -
04/09:30pm 9.9 5.2 6.1 77 1.8 NNE 20 26 11 14 - - -
04/09:00pm 9.8 4.7 6.2 78 1.7 N 22 28 12 15 - - -
04/08:30pm 9.3 6.3 6.2 81 1.4 NNE 11 22 6 12 - - -
04/08:00pm 9.2 5.4 5.9 80 1.5 NNE 15 20 8 11 - - -
04/07:30pm 9.0 6.4 5.9 81 1.4 NNE 9 17 5 9 - - -
04/07:00pm 9.4 3.9 6.1 80 1.5 N 24 30 13 16 - - -
04/06:30pm 9.2 4.5 6.1 81 1.4 N 20 28 11 15 - - -
04/06:00pm 9.3 4.6 6.0 80 1.5 N 20 24 11 13 - - -
04/05:30pm 9.3 4.6 6.0 80 1.5 N 20 24 11 13 - - -
04/05:00pm 9.0 5.2 5.7 80 1.5 NNE 15 22 8 12 - - -
04/04:30pm 9.2 5.1 6.1 81 1.4 NNE 17 22 9 12 - - -
04/04:00pm 8.8 6.2 5.9 82 1.3 NNE 9 19 5 10 - - -
04/03:30pm 8.8 6.2 5.9 82 1.3 NNE 9 19 5 10 - - -
04/03:00pm 9.0 5.7 6.3 83 1.2 NNE 13 19 7 10 - - -
04/02:30pm 8.7 6.1 6.0 83 1.2 NNE 9 15 5 8 - - -
04/02:00pm 8.8 5.4 6.1 83 1.2 NNE 13 17 7 9 - - -
04/01:30pm 8.7 5.4 6.2 84 1.1 NNE 13 19 7 10 - - -
04/01:00pm 8.4 5.4 5.9 84 1.1 NNE 11 19 6 10 - - -
04/12:30pm 8.4 4.3 6.0 85 1.1 NNE 17 24 9 13 - - -
04/12:00pm 8.0 4.2 5.6 85 1.1 NNE 15 22 8 12 - - -
04/11:30am 7.8 5.0 5.3 84 1.1 NNE 9 15 5 8 - - -
04/11:00am 7.8 5.3 4.7 81 1.4 NE 7 11 4 6 - - -
04/10:30am 7.8 4.4 4.2 78 1.6 NNE 11 20 6 11 - - -
04/10:00am 8.5 4.4 4.5 76 1.8 NNE 15 24 8 13 - - -
04/09:30am 7.4 4.7 3.5 76 1.7 NE 7 13 4 7 - - -
04/09:00am 7.4 4.6 2.9 73 1.9 NE 7 13 4 7 - - -
04/08:30am 9.0 3.0 3.2 67 2.5 N 24 32 13 17 - - -
04/08:00am 9.4 3.7 2.9 64 2.8 N 22 28 12 15 - - -
04/07:30am 9.2 4.4 2.8 64 2.7 NNE 17 22 9 12 - - -
04/07:00am 8.5 5.2 2.5 66 2.5 NE 9 15 5 8 - - -
04/06:30am 8.2 4.2 2.9 69 2.2 NE 13 19 7 10 - - -
04/06:00am 9.2 4.8 2.5 63 2.8 NNE 15 22 8 12 - - -
04/05:30am 9.4 4.4 3.4 66 2.6 N 19 26 10 14 - - -
04/05:00am 9.2 5.2 3.0 65 2.6 NNE 13 20 7 11 - - -
04/04:30am 8.9 5.5 1.8 61 2.9 NNE 9 17 5 9 - - -
04/04:00am 8.8 5.4 1.9 62 2.9 NE 9 15 5 8 - - -
04/03:30am 9.0 5.0 3.0 66 2.6 NNE 13 19 7 10 - - -
04/03:00am 8.7 5.3 1.8 62 2.9 NNE 9 13 5 7 - - -
04/02:30am 9.0 4.3 3.2 67 2.5 NNE 17 20 9 11 - - -
04/02:00am 9.1 4.4 2.9 65 2.6 N 17 20 9 11 - - -
04/01:30am 9.5 4.5 3.5 66 2.6 N 19 24 10 13 - - -
04/01:00am 9.6 4.2 2.7 62 2.9 NNW 20 26 11 14 - - -
04/12:30am 9.8 4.7 2.9 62 3.0 NNW 19 24 10 13 - - -
04/12:00am 9.6 4.3 2.9 63 2.9 N 20 24 11 13 - - -
 
Date/Time
EST
Temp
°C
App
Temp
°C
Dew
Point
Rel
Hum
%
Delta-T
°C
Wind Press
QNH
hPa
Press
MSL
hPa
Rain
since 9 am
mm
Dir
 
Spd
km/h
Gust
km/h
Spd
kts
Gust
kts
03/11:30pm 9.5 4.8 3.0 64 2.8 N 17 22 9 12 - - -
03/11:00pm 9.3 4.2 2.9 64 2.7 N 19 22 10 12 - - -
03/10:30pm 9.9 4.6 3.0 62 3.0 N 20 24 11 13 - - -
03/10:00pm 10.0 5.2 2.6 60 3.2 NNW 17 20 9 11 - - -
03/09:30pm 10.0 4.7 1.6 56 3.5 NW 19 22 10 12 - - -
03/09:00pm 10.1 4.7 2.2 58 3.3 WNW 20 24 11 13 - - -
03/08:30pm 10.2 4.3 1.8 56 3.5 WNW 22 28 12 15 - - -
03/08:00pm 10.1 3.7 1.0 53 3.7 WNW 24 28 13 15 - - -
03/07:30pm 10.2 3.1 1.3 54 3.7 WNW 28 32 15 17 - - -
03/07:00pm 10.1 3.7 1.2 54 3.7 WNW 24 30 13 16 - - -
03/06:30pm 10.2 3.9 1.3 54 3.7 WNW 24 28 13 15 - - -
03/06:00pm 10.1 4.1 1.2 54 3.7 WNW 22 26 12 14 - - -
03/05:30pm 10.2 4.1 0.5 51 3.9 WNW 22 30 12 16 - - -
03/05:00pm 10.3 4.7 1.2 53 3.8 WNW 20 24 11 13 - - -
03/04:30pm 10.3 3.8 0.3 50 4.1 W 24 30 13 16 - - -
03/04:00pm 10.4 4.5 2.0 56 3.5 W 22 28 12 15 - - -
03/03:30pm 10.3 4.9 2.7 59 3.3 WNW 20 24 11 13 - - -
03/03:00pm 10.3 5.5 2.7 59 3.3 WNW 17 20 9 11 - - -
03/02:30pm 10.2 5.4 2.6 59 3.2 WNW 17 20 9 11 - - -
03/02:00pm 10.2 4.9 2.1 57 3.4 WNW 19 20 10 11 - - -
03/01:30pm 9.5 6.7 5.3 75 1.9 NNE 9 15 5 8 - - -
03/01:00pm 8.9 6.1 5.1 77 1.7 N 9 13 5 7 - - -
03/12:30pm 8.7 5.9 5.1 78 1.6 N 9 11 5 6 - - -
03/12:00pm 8.6 6.1 4.8 77 1.7 N 7 13 4 7 - - -
03/11:30am 8.5 5.6 4.5 76 1.8 NNW 9 13 5 7 - - -
03/11:00am 8.2 4.9 4.4 77 1.7 NNW 11 13 6 7 - - -
03/10:30am 8.4 4.4 4.8 78 1.6 WNW 15 19 8 10 - - -
03/10:00am 8.8 5.4 5.7 81 1.4 NNW 13 17 7 9 - - -
03/09:30am 8.8 4.8 6.6 86 1.0 N 17 22 9 12 - - -
03/09:00am 7.6 4.9 5.7 88 0.9 NNE 9 17 5 9 - - -
03/08:30am 6.6 4.3 4.6 87 0.9 E 6 7 3 4 - - -
03/08:00am 7.0 5.1 5.0 87 0.9 ESE 4 7 2 4 - - -
03/07:30am 7.0 5.8 4.8 86 1.0 CALM 0 4 0 2 - - -
03/07:00am 6.3 3.8 4.0 85 1.0 ESE 6 6 3 3 - - -
03/06:30am 6.3 4.6 3.8 84 1.1 SE 2 6 1 3 - - -
03/06:00am 6.2 4.0 3.4 82 1.2 E 4 9 2 5 - - -
03/05:30am 6.8 5.4 3.8 81 1.3 CALM 0 4 0 2 - - -
03/05:00am 6.6 4.1 3.8 82 1.2 SE 6 9 3 5 - - -
03/04:30am 5.7 3.0 2.7 81 1.2 ESE 6 9 3 5 - - -
03/04:00am 5.4 2.6 2.1 79 1.3 ESE 6 9 3 5 - - -
03/03:30am 6.8 4.9 2.7 75 1.7 SW 2 6 1 3 - - -
03/03:00am 6.9 4.0 2.6 74 1.8 SE 7 7 4 4 - - -
03/02:30am 7.7 4.9 3.2 73 1.9 S 7 9 4 5 - - -
03/02:00am 8.2 6.0 3.5 72 2.0 SSW 4 6 2 3 - - -
03/01:30am 8.0 6.6 3.3 72 2.0 CALM 0 4 0 2 - - -
03/01:00am 8.3 6.0 2.8 68 2.3 S 4 6 2 3 - - -
03/12:30am 8.6 6.5 3.8 72 2.1 S 4 6 2 3 - - -
03/12:00am 8.2 6.4 3.5 72 2.0 SSW 2 4 1 2 - - -
 
Date/Time
EST
Temp
°C
App
Temp
°C
Dew
Point
Rel
Hum
%
Delta-T
°C
Wind Press
QNH
hPa
Press
MSL
hPa
Rain
since 9 am
mm
Dir
 
Spd
km/h
Gust
km/h
Spd
kts
Gust
kts
02/11:30pm 8.8 7.1 3.8 71 2.2 SW 2 4 1 2 - - -
02/11:00pm 8.9 6.4 3.9 71 2.2 S 6 7 3 4 - - -
02/10:30pm 8.7 6.2 3.5 70 2.2 SSE 6 9 3 5 - - -
02/10:00pm 8.8 6.1 3.6 70 2.2 SSW 7 11 4 6 - - -
02/09:30pm 8.3 6.6 3.9 74 1.9 E 2 9 1 5 - - -
02/09:00pm 8.6 6.1 4.0 73 2.0 S 6 7 3 4 - - -
02/08:30pm 8.8 6.4 4.2 73 2.0 SSW 6 9 3 5 - - -
02/08:00pm 9.0 6.0 4.2 72 2.1 SSW 9 19 5 10 - - -
02/07:30pm 9.1 6.1 4.1 71 2.2 SSW 9 13 5 7 - - -
02/07:00pm 9.0 6.0 4.2 72 2.1 SSW 9 13 5 7 - - -
02/06:30pm 9.0 5.7 4.4 73 2.0 SSW 11 17 6 9 - - -
02/06:00pm 8.8 6.2 4.4 74 1.9 SSW 7 13 4 7 - - -
02/05:30pm 8.9 5.9 4.1 72 2.1 SSW 9 13 5 7 - - -
02/05:00pm 10.4 7.8 3.4 62 3.1 SSW 6 9 3 5 - - -
02/04:30pm 10.6 7.0 2.9 59 3.3 SW 11 17 6 9 - - -
02/04:00pm 11.0 7.4 3.1 58 3.4 SW 11 19 6 10 - - -
02/03:30pm 11.0 6.6 2.8 57 3.5 SW 15 22 8 12 - - -
02/03:01pm 10.3 3.5 3.1 61 3.1 WSW 28 48 15 26 - - -
02/03:00pm 10.3 3.1 3.1 61 3.1 WSW 30 48 16 26 - - -
02/02:54pm 10.8 4.1 3.6 61 3.2 WSW 28 48 15 26 - - -
02/02:30pm 10.5 3.9 4.2 65 2.8 WSW 28 41 15 22 - - -
02/02:00pm 10.8 6.1 3.1 59 3.3 SW 17 35 9 19 - - -
02/01:30pm 9.6 3.2 3.4 65 2.7 SW 26 50 14 27 - - -
02/01:27pm 9.6 2.4 3.1 64 2.8 SW 30 50 16 27 - - -
02/01:00pm 10.9 2.8 3.0 58 3.4 SW 35 48 19 26 - - -
02/12:30pm 10.6 2.5 3.2 60 3.2 WSW 35 44 19 24 - - -
02/12:00pm 10.5 2.0 3.3 61 3.1 WSW 37 48 20 26 - - -
02/11:30am 10.4 1.7 4.3 66 2.7 WSW 39 52 21 28 - - -
02/11:05am 10.5 3.2 4.4 66 2.7 SW 32 52 17 28 - - -
02/11:00am 10.4 3.5 4.5 67 2.6 SW 30 46 16 25 - - -
02/10:57am 10.6 3.4 5.2 69 2.5 SW 32 50 17 27 - - -
02/10:30am 10.7 2.3 5.7 71 2.3 WSW 39 46 21 25 - - -
02/10:00am 9.4 0.6 5.6 77 1.7 W 41 50 22 27 - - -
02/09:30am 6.5 -4.9 4.7 88 0.8 WSW 54 102 29 55 - - -
02/09:26am 8.9 -1.5 6.2 83 1.2 WSW 50 102 27 55 - - -
02/09:11am 8.1 -0.4 5.2 82 1.3 WSW 39 59 21 32 - - -
02/09:00am 8.8 -0.3 5.9 82 1.3 WSW 43 57 23 31 - - -
02/08:52am 10.2 0.8 5.4 72 2.2 W 44 57 24 31 - - -
02/08:30am 10.7 2.9 6.5 75 2.0 WNW 37 50 20 27 - - -
02/08:00am 11.0 3.9 6.6 74 2.1 WNW 33 39 18 21 - - -
02/07:30am 11.1 4.3 6.8 75 2.0 WNW 32 41 17 22 - - -
02/07:00am 11.3 5.1 7.8 79 1.7 WNW 30 37 16 20 - - -
02/06:30am 11.5 4.7 7.0 74 2.1 WNW 32 37 17 20 - - -
02/06:00am 11.6 5.2 7.1 74 2.2 W 30 37 16 20 - - -
02/05:30am 11.6 5.3 8.8 83 1.4 WNW 32 39 17 21 - - -
02/05:00am 11.6 5.2 9.5 87 1.1 WNW 33 41 18 22 - - -
02/04:30am 11.5 4.9 9.9 90 0.8 WNW 35 43 19 23 - - -
02/04:00am 11.2 4.2 9.8 91 0.7 WNW 37 54 20 29 - - -
02/03:53am 10.9 4.5 9.3 90 0.8 WNW 33 54 18 29 - - -
02/03:30am 11.5 4.6 8.7 83 1.4 NW 35 43 19 23 - - -
02/03:00am 11.8 6.2 8.8 82 1.5 NNW 28 39 15 21 - - -
02/02:30am 11.5 5.9 8.7 83 1.4 NNW 28 33 15 18 - - -
02/02:00am 11.9 6.1 8.0 77 1.9 N 28 37 15 20 - - -
02/01:30am 11.2 4.8 7.1 76 2.0 N 30 35 16 19 - - -

Other Formats:

Comma delimited format used in spreadsheet applications
http://www.bom.gov.au/fwo/IDV60801/IDV60801.94871.axf

JavaScript Object Notation format (JSON) in row-major order
http://www.bom.gov.au/fwo/IDV60801/IDV60801.94871.json